This is the latest recevied weather packets stored in our database for station/object AE5HO. If no packets are shown the sender has not sent any weather packets the latest 10 day(s).
| Time | Temp. | Humidity | Pressure | Rain* | Wind** | Luminosity | Snow |
|---|---|---|---|---|---|---|---|
| 1787732214 | 29.44° C | 56% | 1014.6 hPa | 0 mm | - | 0 W/m² | - |
| 1787731911 | 29.44° C | 57% | 1014.6 hPa | 0 mm | - | 0 W/m² | - |
| 1787731611 | 30° C | 56% | 1014.4 hPa | 0 mm | - | 0 W/m² | - |
| 1787731306 | 30° C | 57% | 1014.6 hPa | 0 mm | - | 0 W/m² | - |
| 1787731000 | 30° C | 55% | 1014.4 hPa | 0 mm | - | 0 W/m² | - |
| 1787730709 | 30° C | 55% | 1014.6 hPa | 0 mm | - | 0 W/m² | - |
| 1787730399 | 30° C | 55% | 1014.4 hPa | 0 mm | - | 0 W/m² | - |
| 1787730095 | 30° C | 55% | 1014.4 hPa | 0 mm | - | 0 W/m² | - |
| 1787729789 | 30° C | 55% | 1014.5 hPa | 0 mm | - | 0 W/m² | - |
| 1787729484 | 30° C | 56% | 1014.6 hPa | 0 mm | - | 0 W/m² | - |
| 1787729183 | 30° C | 55% | 1014.7 hPa | 0 mm | - | 0 W/m² | - |
| 1787728879 | 30° C | 56% | 1014.6 hPa | 0 mm | - | 0 W/m² | - |
| 1787728574 | 30° C | 55% | 1014.6 hPa | 0 mm | - | 0 W/m² | - |
| 1787728270 | 30.56° C | 54% | 1014.5 hPa | 0 mm | - | 0 W/m² | - |
| 1787727965 | 30.56° C | 54% | 1014.8 hPa | 0 mm | - | 0 W/m² | - |
| 1787727664 | 30.56° C | 53% | 1014.8 hPa | 0 mm | - | 0 W/m² | - |
| 1787727363 | 30.56° C | 52% | 1014.9 hPa | 0 mm | - | 0 W/m² | - |
| 1787727058 | 31.11° C | 52% | 1014.8 hPa | 0 mm | - | 0 W/m² | - |
| 1787726753 | 31.11° C | 51% | 1014.8 hPa | 0 mm | - | 0 W/m² | - |
| 1787726449 | 31.11° C | 50% | 1014.6 hPa | 0 mm | - | 0 W/m² | - |
| 1787726144 | 31.11° C | 50% | 1014.6 hPa | 0 mm | - | 0 W/m² | - |
| 1787725840 | 30.56° C | 53% | 1014.6 hPa | 0 mm | - | 0 W/m² | - |
| 1787725536 | 30.56° C | 52% | 1014.6 hPa | 0 mm | - | 0 W/m² | - |
| 1787725233 | 30.56° C | 54% | 1014.5 hPa | 0 mm | - | 0 W/m² | - |
| 1787724927 | 31.11° C | 54% | 1014.8 hPa | 0 mm | - | 0 W/m² | - |
* Rain latest hour (hover to see other rain measurements)
** Current wind speed in m/s (hover to see current wind gust speed)